Weather History for Little Rock, AR

Change the Weather History Date:

Sunday, May 10, 2009

  Actual Average Record
Temperature  
Mean Temperature 62 °F 69 °F  
Max Temperature 65 °F 79 °F 90 °F (2004)
Min Temperature 58 °F 60 °F 48 °F (1990)
Degree Days  
Heating Degree Days 3 1  
Month to date heating degree days 9 14  
Since 1 July heating degree days 2923 2996  
Cooling Degree Days 0 5  
Month to date cooling degree days 44 45  
Year to date cooling degree days 141 134  
Growing Degree Days 10 (Base 50)    
Moisture  
Dew Point 57 °F    
Average Humidity 85    
Maximum Humidity 97    
Minimum Humidity 73    
Precipitation  
Precipitation 1.06 in 0.17 in 1.32 in (2006)
Month to date precipitation 8.85 1.77  
Year to date precipitation 23.57 18.41  
Snow  
Snow 0.00 in 0.00 in - ()
Month to date snowfall 0.0 0.0  
Since 1 July snowfall 0.2 4.4  
Snow Depth 0.00 in    
Sea Level Pressure  
Sea Level Pressure 30.12 in    
Wind  
Wind Speed 9 mph (NE)    
Max Wind Speed 22 mph    
Max Gust Speed 25 mph    
Visibility 8 miles    
Events Rain , Thunderstorm    
T = Trace of Precipitation, MM = Missing Value Source: NWS Daily Summary

Daily Weather History Graph

Daily Weather History Graph

Search for Another Location

Airport:

Trip Planner

Search our weather history database for the weather conditions in past years. The results will help you decide how hot, cold, wet, or windy it might be!

Date:

Astronomy

May. 10, 2009 Rise Set
Actual Time 6:09 AM CDT 8:01 PM CDT
Civil Twilight 5:42 AM CDT 8:29 PM CDT
Nautical Twilight 5:08 AM CDT 9:02 PM CDT
Astronomical Twilight 4:33 AM CDT 9:38 PM CDT
Moon 9:56 PM CDT (5/10) 6:47 AM CDT (5/10)
Length of Visible Light 14h 46m
Length of Day
13h 51m
Full, 98% of the Moon is Illuminated
May 10
Full
May 17
Last Quarter
May 24
New
May 30
First Quarter
Jun 7
Full

Hourly Weather History & Observations

Time (CDT) Temp. Dew Point Humidity Pressure Visibility Wind Dir Wind Speed Gust Speed Precip Events Conditions
12:53 AM 64.0 °F 57.9 °F 80% 30.09 in 10.0 mi North 8.1 mph - N/A   Overcast
1:53 AM 64.0 °F 55.9 °F 75% 30.09 in 10.0 mi North 3.5 mph - N/A   Overcast
2:53 AM 62.6 °F 57.2 °F 82% 30.07 in 10.0 mi NE 5.8 mph - N/A   Overcast
3:53 AM 63.0 °F 57.0 °F 81% 30.09 in 10.0 mi East 3.5 mph - 0.00 in   Overcast
3:56 AM 62.6 °F 57.2 °F 82% 30.09 in 5.0 mi NE 3.5 mph - N/A Rain , Thunderstorm Thunderstorms and Rain
4:53 AM 61.0 °F 57.9 °F 90% 30.12 in 4.0 mi ENE 6.9 mph - 0.12 in Rain , Thunderstorm Light Thunderstorms and Rain
5:53 AM 60.1 °F 59.0 °F 96% 30.14 in 3.0 mi ENE 11.5 mph - 0.25 in Rain , Thunderstorm Thunderstorms and Rain
6:25 AM 60.8 °F 57.2 °F 88% 30.17 in 5.0 mi WSW 12.7 mph - 0.08 in Rain , Thunderstorm Light Thunderstorms and Rain
6:35 AM 60.8 °F 57.2 °F 88% 30.16 in 2.0 mi SE 13.8 mph - 0.12 in Rain , Thunderstorm Thunderstorms and Rain
6:53 AM 59.0 °F 57.0 °F 93% 30.18 in 3.0 mi East 9.2 mph - 0.31 in Rain , Thunderstorm Thunderstorms and Rain
7:53 AM 59.0 °F 57.0 °F 93% 30.13 in 3.0 mi East 16.1 mph 21.9 mph 0.14 in Rain , Thunderstorm Thunderstorms and Rain
8:53 AM 57.9 °F 55.9 °F 93% 30.17 in 3.0 mi Variable 6.9 mph - 0.19 in Rain Rain
9:53 AM 60.1 °F 57.0 °F 90% 30.17 in 7.0 mi East 10.4 mph - 0.03 in Rain Rain
10:53 AM 60.1 °F 57.9 °F 93% 30.17 in 7.0 mi ENE 5.8 mph - 0.00 in   Overcast
11:53 AM 63.0 °F 59.0 °F 87% 30.15 in 7.0 mi ENE 6.9 mph - N/A   Overcast
12:04 PM 64.4 °F 60.8 °F 88% 30.14 in 7.0 mi ENE 11.5 mph - N/A   Overcast
12:53 PM 63.0 °F 57.9 °F 84% 30.15 in 7.0 mi NNE 11.5 mph - N/A   Overcast
1:10 PM 62.6 °F 57.2 °F 82% 30.14 in 10.0 mi NE 10.4 mph - N/A   Overcast
1:53 PM 62.1 °F 57.0 °F 84% 30.15 in 10.0 mi NE 12.7 mph - N/A   Overcast
2:53 PM 61.0 °F 57.0 °F 87% 30.15 in 10.0 mi NNE 8.1 mph - N/A   Overcast
3:53 PM 59.0 °F 55.0 °F 87% 30.11 in 7.0 mi East 10.4 mph - 0.01 in Rain Light Rain
4:25 PM 59.0 °F 55.4 °F 88% 30.13 in 10.0 mi Calm Calm - 0.00 in   Overcast
4:53 PM 59.0 °F 55.9 °F 90% 30.06 in 7.0 mi East 11.5 mph - 0.00 in Rain Light Rain
4:59 PM 59.0 °F 55.4 °F 88% 30.03 in 7.0 mi East 16.1 mph 21.9 mph 0.00 in Rain Light Rain
5:43 PM 59.0 °F 55.4 °F 88% 30.07 in 10.0 mi NNE 10.4 mph - 0.01 in Rain Light Rain
5:53 PM 59.0 °F 55.9 °F 90% 30.07 in 10.0 mi NE 12.7 mph - 0.01 in   Overcast
6:39 PM 60.8 °F 57.2 °F 88% 30.05 in 10.0 mi ENE 11.5 mph - N/A   Overcast
6:53 PM 62.1 °F 57.0 °F 84% 30.06 in 10.0 mi ENE 8.1 mph - N/A   Mostly Cloudy
7:42 PM 60.8 °F 57.2 °F 88% 30.07 in 10.0 mi NE 8.1 mph - N/A   Overcast
7:53 PM 61.0 °F 57.0 °F 87% 30.08 in 10.0 mi NE 6.9 mph - N/A   Overcast
8:53 PM 61.0 °F 57.0 °F 87% 30.09 in 10.0 mi NNE 5.8 mph - N/A   Overcast
9:53 PM 61.0 °F 57.9 °F 90% 30.12 in 10.0 mi NNE 8.1 mph - 0.00 in   Overcast
10:53 PM 60.1 °F 57.0 °F 90% 30.12 in 10.0 mi NNE 9.2 mph - N/A   Overcast
11:09 PM 60.8 °F 55.4 °F 82% 30.12 in 10.0 mi NE 9.2 mph - N/A   Overcast
11:53 PM 60.1 °F 55.0 °F 83% 30.13 in 10.0 mi NNE 9.2 mph - N/A   Overcast